This is the latest recevied weather packets stored in our database for station/object KO6LQJ. If no packets are shown the sender has not sent any weather packets the latest 10 day(s).
| Time | Temp. | Humidity | Pressure | Rain* | Wind** | Luminosity | Snow |
|---|---|---|---|---|---|---|---|
| 1777739906 | 16.67° C | 76% | 1017.2 hPa | 0 mm | - | 154 W/m² | - |
| 1777739602 | 16.11° C | 76% | 1017.4 hPa | 0 mm | - | 130 W/m² | - |
| 1777739300 | 16.11° C | 76% | 1017.3 hPa | 0 mm | - | 111 W/m² | - |
| 1777738996 | 16.11° C | 77% | 1017.2 hPa | 0 mm | - | 117 W/m² | - |
| 1777738693 | 16.11° C | 77% | 1017.3 hPa | 0 mm | - | 95 W/m² | - |
| 1777738389 | 16.11° C | 78% | 1017.1 hPa | 0 mm | - | 95 W/m² | - |
| 1777738087 | 16.11° C | 78% | 1017.1 hPa | 0 mm | - | 84 W/m² | - |
| 1777737786 | 15.56° C | 79% | 1016.8 hPa | 0 mm | - | 85 W/m² | - |
| 1777737484 | 15.56° C | 79% | 1017 hPa | 0 mm | - | 85 W/m² | - |
| 1777737182 | 15° C | 79% | 1016.9 hPa | 0 mm | - | 85 W/m² | - |
| 1777736877 | 15.56° C | 79% | 1016.9 hPa | 0 mm | - | 80 W/m² | - |
| 1777736264 | 15° C | 80% | 1016.7 hPa | 0 mm | - | 95 W/m² | - |
| 1777735961 | 15° C | 80% | 1016.8 hPa | 0 mm | - | 115 W/m² | - |
| 1777735658 | 15° C | 80% | 1016.8 hPa | 0 mm | - | 95 W/m² | - |
| 1777735355 | 15° C | 81% | 1016.7 hPa | 0 mm | - | 95 W/m² | - |
| 1777735053 | 15° C | 82% | 1016.7 hPa | 0 mm | - | 81 W/m² | - |
| 1777734750 | 15° C | 82% | 1016.6 hPa | 0 mm | - | 102 W/m² | - |
| 1777734447 | 14.44° C | 83% | 1016.6 hPa | 0 mm | - | 82 W/m² | - |
| 1777734144 | 14.44° C | 84% | 1016.6 hPa | 0 mm | - | 88 W/m² | - |
| 1777733840 | 14.44° C | 84% | 1016.7 hPa | 0 mm | - | 65 W/m² | - |
| 1777733537 | 14.44° C | 84% | 1016.7 hPa | 0 mm | - | 60 W/m² | - |
| 1777733233 | 14.44° C | 85% | 1017 hPa | 0 mm | - | 43 W/m² | - |
| 1777732930 | 14.44° C | 85% | 1016.9 hPa | 0 mm | - | 38 W/m² | - |
| 1777732626 | 14.44° C | 85% | 1017.1 hPa | 0 mm | - | 34 W/m² | - |
| 1777732324 | 14.44° C | 85% | 1016.9 hPa | 0 mm | - | 34 W/m² | - |
* Rain latest hour (hover to see other rain measurements)
** Current wind speed in m/s (hover to see current wind gust speed)